STARLINK-2122 (47400 NORAD) Tracking and Keplerian Element Data
This shows tracking and keplerian element data for the satellite.
Feedback or suggestion? Click here.
Element | Value |
Catalog | 47400 |
Name | STARLINK-2122 |
Epoch Orbit | 177 |
Epoch Day | 99.91667824 |
Epoch Year | 2021 |
RAAN | 181.7036 |
Inclination | 53.0544 |
Eccentricity | 0.0004183 |
Argument of Perigee | 8.462 |
Mean Anonmoly | 61.1621 |
Mean Motion | 15.62664505 |
Decay Rate | 9.455E-05 |
L1 | 1 47400U 21005BD 21099.91667824 .00009455 00000-0 10935-3 0 9991 |
L2 | 2 47400 53.0544 181.7036 0004183 8.4620 61.1621 15.62664505 1772 |
Live tracking and technical data element details for STARLINK-2122 (NORAD 47400). STARLINK-2122 can be tracked NOW for your location showing map with azimuth and elevation plus other details from your city location.
Track the satellite on the map from your city or location and see movement details for azimuth, elevation, latitude, longitude, range, height, and movement on the map or in text.
IsCatalogInMostPopularTable: catalog: 47400, numindb: 15
Update: records affected: 1
GetName: 47400 STARLINK-2122
Hit Count: updated at: Sat, 10 Apr 2021 19:37:29 GMT